Terug naar catalogus

METEOR 2-6 DEB

ActiefPO
NORAD 31406·DEBRIS·🇷🇺 Russia

Gelanceerd Sep 9, 1980 vanaf Plesetsk Cosmodrome

Loading…

Volgende Passages (komende 24 uur)

TLE

VersSource: Space-Track

Epoch: Sep 13, 2026, 21:30 UTC

1 31406U 80073H   26256.89593801  .00003822  00000-0  98033-3 0  9997
2 31406  81.2155 226.9325 0030074 244.0525 115.7568 14.49897484120580

Volg METEOR 2-6 DEB in realtime met AllMySat

Download on the App Store